Погода в Шаиме

Погода в Шаиме : погода сейчас, прогноз погоды и архив. Всё, что Вы хотите узнать о погоде в Шаиме!

Хотите узнать прогноз погоды в Шаиме? Тогда Вам сюда: Погода в Шаиме

Поиск расширенной информации на нашем сайте:

Другие новости

Новости СМИ2

Главная страница сайта

Новости сайта

03.07.2017

Напоминаем, что на нашем специализированном сайте Метеоцентр.Азия вы можете получить высокодетализированные автоматические прогнозы погоды по пунктам России, СНГ и мира в авиационном формате (включающие направление и скорость ветра, видимость, явления погоды, количество и форму облачности, нижнюю и верхнюю границу облачности).


Погода в Шаиме - сегодня

Время (UTC), дата Ветер
(°,м/с) 
Видим.   Явления Облачность Т
(°С)
Тd
(°С)
f(%) Тe
(°С)
Pmin
(гПа)
dP
(гПа)
Po
(мм)
O2
(г/м3)
Тmin Tmax R s Состояние
почвы
09 21.05.18 310 (СЗ) 27000 м    9/9 600 м 
[Sc]
+9.8 +0.1 51 +9  1019.3  1.2  760  295           
12 21.05.18 340 (С) 5{10}  27000 м    8/8 600 м 
[Sc]
+12.6 -1.3 38 +12  1019.6  0.4  760  293           
18 21.05.18 230 (ЮЗ) 25000 м    3/3 600 м 
[Sc]
+5 +0.4 72 +5  1019.3  -0.3  760  300           
21 21.05.18 230 (ЮЗ) 25000 м    3/3 600 м 
[Sc]
+6.3 -1.1 59 +5  1017.5  -1.8  758  299           
00 22.05.18 230 (ЮЗ) 24000 м    8/8 600 м 
[Sc]
+7.8 +0.2 59 +7  1014.7  -2.7  756  296           
03 22.05.18 240 (ЮЗ) 23000 м    10/10 600 м кучево-дожд. 
[Cb cap]
+9.3 +3.1 65 +8  1010.8  -3.9  753  293  +3.9        влажная 
06 22.05.18 280 (З) 5{10}  24000 м    10/10 600 м кучево-дожд. 
[Cb cap]
+12.2 +3.6 56 +11  1007.7  -2.9  751  289           
15 22.05.18 340 (С) 9-15{19}  27000 м    8/4 600 м кучево-дожд., верхняя 
[Cb cap|Ci sp]
+11 -4.6 33 +9  1018  3.8  759  294    +14.9  0.4     
18 22.05.18 340 (С) 5{15}  25000 м    3/3 600 м 
[Sc]
+7.7 -3.2 46 +6  1020.9  2.8  761  299           
00 23.05.18 310 (СЗ) 3{12}  24000 м    3/0 верхняя 
[Ci fib]
+4.9 -2 61 +4  1024.7  1.5  764  302           
03 23.05.18 320 (СЗ) 28000 м    ясно 
+8 -2.3 48 +6  1025.7  1.2  764  300  +4.5        влажная 
06 23.05.18 300 (СЗ) 28000 м    ясно 
+12.1 -3.8 33 +12  1024.9  -0.7  764  295           
09 23.05.18 260 (З) 24000 м    8/3 1000 м верхняя 
[Sc|Ci fib]
+14.9 -4 27 +15  1023  -1.9  762  292           
12 23.05.18 240 (ЮЗ) 24000 м    8/4 600 м средняя, верхняя 
[Sc|Ac trans|Ci fib]
+17 -5.5 21 +17  1019.9  -3.1  765  291           
15 23.05.18 190 (Ю) 5000 м  слаб. ливневой дождь  10/10 300 м кучево-дожд. 
[Cb cap]
+12.8 +2 48 +14  1017.1  -2.7  758  292    +17.5  0.4     
18 23.05.18 170 (Ю) н/о    н/о 
+12.8 -0.3 40 +13  1012.3  -4.8  754  290           
21 23.05.18 200 (Ю) 23000 м  {ливн. осадки}  8/8 600 м кучево-дожд. 
[Cb cap]
+10.7 -0.2 47 +10  1008  -4.2  751  291           
00 24.05.18 230 (ЮЗ) 24000 м  {ливн. осадки}  8/6 600 м средняя, верхняя 
[Sc|Ac trans|Ci fib]
+13.5 +3 49 +13  1005.2  -2.7  749  287           
03 24.05.18 280 (З) 25000 м    10/5 600 м кучево-дожд., средняя, верхняя 
[Cb cap|Ac trans|Ci fib]
+15.9 +9.1 64 +16  1004.2  -1.1  748  283  +10.4    0.5     
15 24.05.18 320 (СЗ) 5{13}  26000 м    8/4 600 м верхняя 
[Sc|Ci fib]
+11.4 -1.4 41 +10  1011.8  2.4  754  292    +17.4     
18 24.05.18 310 (СЗ) 2{12}  25000 м    8/8 600 м 
[Sc]
+7.8 +0.2 59 +8  1013.1  1.1  755  296           
21 24.05.18 320 (СЗ) 25000 м    4/4 600 м 
[Sc]
+5.6 -1.6 60 +4  1013.7  0.6  755  298           
00 25.05.18 340 (С) 24000 м    6/6 600 м 
[Sc]
+4.5 -2.1 62 +3  1014.5  0.7  756  300           
03 25.05.18 330 (СЗ) 25000 м    6/4 600 м средняя, верхняя 
[Sc|Ac trans|Ci fib]
+6.2 -1.9 56 +5  1014.7  0.3  756  298  +4.4        влажная 
06 25.05.18 330 (СЗ) 25000 м    8/5 600 м верхняя 
[Sc|Ci fib]
+10.2 -3.5 38 +9  1014.4  -0.2  756  294           
Время (UTC), дата Ветер
(°,м/с) 
Видим.   Явления Облачность Т
(°С)
Тd
(°С)
f(%) Тe
(°С)
Pmin
(гПа)
dP
(гПа)
Po
(мм)
O2
(г/м3)
Тmin Tmax R s Состояние
почвы

Для получения пояснительной информации подведите курсор к названию столбца.

ПОГОДА в Шаиме - архив

Всё, что Вы хотите узнать о погоде в Шаиме - удобно и подробно!

Выберите нужную дату (начиная с 1 января 2015* года) и нажмите кнопку "Найти".
Будут отображены архивные сводки погоды по пункту Шаим, начиная с указанной даты.


Отображать данные в формате CSV (для использования в таблицах Excel)


Внимание! Наш архив погоды предназначен исключительно для личного некоммерческого использования в познавательных целях. Если Вам необходимы официальные справки о состоянии погоды (для производственных, юридических, коммерческих и т.п. целей), обращайтесь в органы Росгидромета.

*Примечание: данная дата относится к архиву по метеостанциям СССР (Россия, СНГ, Балтия).
Архив по метеостанциям Зарубежной Европы и Азии (кроме Китая) хранится 10 дней, по другим регионам земного шара (Китай, Африка, Америка, Австралия, Океания) - 1 день.

Шаим - район местоположения метеостанции


Название, широта, долгота, высота метеостанции:
Шаим 60.3°ш. 64.2°д. 53 м над ур. моря [Российская Федерация]

Дополнительная информация

В oтличие oт бoльшинства пoгoдных сайтoв мы публикуем пoдрoбную метеoинфoрмацию в детальнoм прoфессиoнальнoм фoрмате.

Характеристики температуры и влажнoсти вoздуха измеряются на высoте 2 м в тени вдали oт зданий и деревьев.
Скoрoсть ветра измеряется на высoте 10 м (на урoвне рoста челoвека скoрoсть ветра ниже в 1.5-2 раза). Если метеoстанция нахoдится в гoрoде или в лесу, тo скoрoсть ветра занижена на 2-4 м/с пo сравнению с oткрытым местoм. Скoрoсть ветра над акватoриями крупных рек и oзёр, а также на вершинах хoлмoв на 2-5 м/с выше, чем в oбычных услoвиях.
Атмoсфернoе давление в разных тoчках местнoсти мoжет значительнo oтличаться oт давления на метеoстанции, в зависимoсти oт услoвий рельефа (при пoдъёме на 10 м давление пoнижается примернo на 1 мм рт.ст.).